Hourly Data Report for February 09, 2002

SHERBROOKE A
QUEBEC

45°26'00.000" N
71°41'00.000" W
241.40 m
7028124
71610
YSC

Download Data

Hourly Data (February 2002)
Hourly Data Report for February 9, 2002
TIME
LST
Temp Definition
°C
Dew Point Definition
°C
Rel Hum Definition
%
Precip. Amount Definition
mm

Wind Dir Definition
10's deg

Wind Spd Definition
km/h
Visibility Definition
km
Stn Press Definition
kPa
Hmdx Definition


Wind Chill Definition


Weather Definition


00:00 -14.9 -18.3 75   25 6 15.0 99.36   -19  
01:00 -15.0 -18.6 74   26 9 15.0 99.46   -21  
02:00 -15.8 -19.5 73   29 7 15.0 99.61   -21  
03:00 -17.4 -21.5 70   27 4 15.0 99.71   -21  
04:00 -17.0 -20.5 74   21 9 15.0 99.84   -23  
05:00 -17.3 -21.0 73   23 9 15.0 99.93   -24  
06:00 -16.8 -20.7 72   24 11 15.0 100.06   -24  
07:00 -18.8 -22.5 73   24 7 15.0 100.18   -24  
08:00 -17.5 -21.4 72   27 4 24.1 100.28   -21 Clear
09:00 -15.3 -19.9 68   28 9 24.1 100.36   -21 Clear
10:00 -13.6 -19.2 63   25 11 24.1 100.46   -20 Clear
11:00 -12.1 -18.9 57   27 9 24.1 100.50   -17 Clear
12:00 -10.4 -19.4 48   27 9 24.1 100.51   -15 Clear
13:00 -9.2 -19.6 43   25 7 24.1 100.53   -13 Clear
14:00 -8.2 -19.8 39   27 13 24.1 100.52   -14 Clear
15:00 -7.5 -19.8 37   27 13 24.1 100.56   -13 Clear
16:00 -6.9 -22.5 28   28 9 24.1 100.58   -11 Clear
17:00 -9.5 -23.0 32     0 24.1 100.59     Mainly Clear
18:00 -13.7 -21.9 50   35 4 15.0 100.65   -16  
19:00 -14.2 -22.4 50   6 6 15.0 100.64   -18  
20:00 -15.4 -22.9 53   8 7 15.0 100.62   -20  
21:00 -17.0 -23.4 58   9 6 15.0 100.63   -22  
22:00 -16.3 -23.2 55   8 9 15.0 100.60   -22  
23:00 -16.0 -23.1 54   9 11 15.0 100.56   -23  

Notes on Data Quality.

Legend

  • E = Estimated
  • M = Missing
  • NA = Not Available*
  • [empty] = Indicates an unobserved value
Date modified: